Location: Liège
(50.6326°N, 5.5797°E)
Time: 03:05:44
(UTC+02:00)

ISS - Visible Passes

Search period start: 28 May 2017 00:00
Search period end: 07 June 2017 00:00
Orbit: 402 x 408 km, 51.6° (Epoch: 28 May)

Date Brightness Start Highest point End Pass type
(mag) Time Alt. Az. Time Alt. Az. Time Alt. Az.
28 May -3.6 00:05:38 10° W 00:08:56 74° N 00:12:14 10° E visible
28 May -4.0 01:42:13 10° WNW 01:45:32 84° SSW 01:47:25 23° ESE visible
28 May -1.9 03:18:58 10° W 03:19:57 16° W 03:19:57 16° W visible
28 May -3.8 23:13:33 10° W 23:16:52 83° NNW 23:20:11 10° ENE visible
29 May -3.8 00:50:10 10° WNW 00:53:29 80° N 00:56:01 16° E visible
29 May -2.5 02:26:45 10° W 02:28:37 26° WSW 02:28:37 26° WSW visible
29 May -3.9 22:21:31 10° WSW 22:24:49 80° SSE 22:28:07 10° ENE visible
29 May -3.6 23:58:05 10° W 00:01:24 73° N 00:04:41 10° E visible
30 May -3.8 01:34:38 10° WNW 01:37:46 55° SW 01:37:46 55° SW visible
30 May -3.6 23:05:59 10° W 23:09:17 72° N 23:12:35 10° E visible
31 May -4.0 00:42:33 10° WNW 00:45:51 77° SSW 00:47:05 35° ESE visible
31 May -1.3 02:19:24 10° W 02:19:42 12° W 02:19:42 12° W visible
31 May -3.8 23:50:27 10° WNW 23:53:46 85° N 23:56:30 14° E visible
01 Jun -2.5 01:27:05 10° W 01:29:07 27° WSW 01:29:07 27° WSW visible
01 Jun -3.6 22:58:21 10° W 23:01:39 75° N 23:04:57 10° E visible
02 Jun -3.6 00:34:54 10° W 00:38:06 48° SSW 00:38:36 44° S visible
02 Jun -3.9 23:42:46 10° WNW 23:46:03 69° SSW 23:48:06 21° ESE visible
03 Jun -1.6 01:19:46 10° W 01:20:45 15° WSW 01:20:45 15° WSW visible
03 Jun -3.8 22:50:38 10° WNW 22:53:57 89° SSW 22:57:15 10° ESE visible
04 Jun -2.7 00:27:19 10° W 00:30:13 28° SSW 00:30:17 28° SSW visible
04 Jun -3.3 23:35:04 10° W 23:38:12 42° SSW 23:39:50 23° SSE visible
05 Jun -3.7 22:42:53 10° WNW 22:46:08 61° SSW 22:49:24 10° ESE visible
06 Jun -1.8 00:20:05 10° W 00:22:05 16° SW 00:22:05 16° SW visible
06 Jun -2.3 23:27:28 10° W 23:30:12 24° SW 23:31:42 17° S visible
